OPS 4682 DEB, 38369

Orbit data source: Space-Track

OPS 4682 DEB, 38369 is space debris in LEO originally from a launch on Sat, 03 Apr 1965 UTC launched from the Air Force Western Test Range (AFWTR). Debris objects in space refer to the collection of defunct objects orbiting the Earth. Examples of debris include non-operational satellites, rocket bodies, and fragments generated from explosions, collisions, or faulty payload assembly.

Loading next visibility...
Identifier
38369, 1965-027BW
Orbit
LEO
Country
Flag of USUS
Related business
Manufacturer
Unknown
Mission
Spacecraft
Bus & Motor
Unknown
Mass
Unknown
Launch date (UTC)
1965-04-03 (61 years ago)
Launch vehicle
Unknown
Launch site
Air Force Western Test Range (AFWTR)
Object type
Payload
Rocket body
Debris
Shape & HBR
Unknown shape, 0.1 m
Radar Cross Section
Medium (>0.1 m² and <1 m²)

Expand to show TLE details & history
Last TLE update: 2 days ago

TLE from 2 days ago
0 OPS 4682 DEB
1 38369U 65027BW  26176.48888301 -.00000157  00000-0 -55952-3 0  9995
2 38369  90.2380   6.5123 0030208  24.6858 335.5702 12.98456796554103
Epoch: 2026-06-25T11:43Z
TLE epoch observation values (Epoch: 2026-06-25T11:43:59.492Z)
Latitude
0.00006°
Longitude
-83.1166°
Altitude
1,249.998 km
Speed
7.24 km/s
True Right ascension
00h 26m 02s
True Declination
0° 00' 00"
Sunlit
Object was in daylight at epoch
Visualization orbit readout
Latitude
Unknown
Longitude
Unknown
Altitude
Unknown
Speed
Unknown
Apparent Right ascension
Unknown
Apparent Declination
Unknown
Sunlit
N/A
Visualization observer readout
Local Sidereal Time
11:43:48
Azimuth
Unknown
Elevation
Unknown
Doppler factor
Unknown
Orbital elements
Apogee altitude
1,288.357 km
Perigee altitude
1,242.179 km
Semi-major axis
7,643.405 km
Eccentricity
0.00302
Inclination
90.238°
RAAN
6.5123°
Arg. of periapsis
24.6858°
True anomaly
335.42654°
Mean anomaly
335.5702°
Eccentric anomaly
335.49842°
Mean motion
3.24798 °/min
Orbital period
110.84 mins
BSTAR
-0.00055952
Loading maneuver chart data...
Computing Atmospheric mass density...
Loading historical data...
Loading historical data...
Loading historical data...
Loading historical data...
Loading historical data...
Loading historical data...
Loading historical data...

Documentation

Showing up to 5 results
|